Colima Airport
MMIA : now visible

Airfield :











YOU CAN JOIN US ON...

 
LOGIN :

Register | Disclaimer

   EN    FR    IT 

 









Legend :    VFR   Marginal VFR   IFR   Intensive IFR   Very Intensive IFR
Visi :
Ceiling :
>= 8 km
>= 3000ft
5 to 8 km
1000 to 3000 ft
1500m to 5 km
500 to 1000 ft
800 to 1500m
200 to 500 ft
< 800m
< 200 ft
Symbols :   Thunderstorms  Fog  Heavy snow  Heavy precipitations  Wind > 20 kt






- Airport Elevation : 2467 ft
- IATA code : CLQ


MMIA - Colima

CURRENT METAR :
  • 252345Z 36008KT 5SM BKN020CB 22/19 A2998 RMK 8/900 OCNL DROPS

EXPIRED METARs :
  • 252300Z 36020KT 3SM TSRA OVC015CB 22/18 A2999 RMK 8/9// RA B00

TAF TAF MMIA
Valid from the 25 at 18:00 until the 26 at 18:00 UTC


251628Z 2518/2618 24008KT 6SM HZ BKN030 BKN090
TEMPO 2522/2602 4SM TSRA BKN010CB
FM260200 05005KT 6SM HZ BKN020 BKN090
TEMPO 2602/2606 4SM TSRA BKN010CB
MMFR FIR / North America



MET'MAP, your aeronautical weather chart ! - Copyright ORBIFLY December 2007 - Disclaimer

ORBIFLY MET'MAP TEAM :

Programming & Development : Alexandra Zaïnal
Concept & original design : Baudouin d'Aumeries
Assistance for programming : Marc-Olivier Méhu
Technical & hardware support : Manuel Goepfert

Contact : metmap@orbifly.com




SOURCES & CREDITS :

   NOAA       Earth
Advisory